Location: Tempio Pausania
(40.9000°N, 9.1000°E)
Time: 09:07:21
(UTC+01:00)

ISS - Visible Passes

Search period start: 22 January 2019 00:00
Search period end: 01 February 2019 00:00
Orbit: 404 x 410 km, 51.6° (Epoch: 23 January)

Date Brightness Start Highest point End Pass type
(mag) Time Alt. Az. Time Alt. Az. Time Alt. Az.
22 Jan -2.9 19:27:33 10° SW 19:30:01 47° WSW 19:30:01 47° WSW visible
23 Jan -3.5 18:36:20 10° SW 18:39:32 52° SE 18:41:04 26° ENE visible
23 Jan -0.4 20:13:28 10° W 20:13:48 12° WNW 20:13:48 12° WNW visible
24 Jan -2.7 19:21:40 10° W 19:24:45 36° NNW 19:24:46 36° NNW visible
25 Jan -3.5 18:30:03 10° WSW 18:33:18 62° NNW 18:35:40 17° NE visible
25 Jan -0.5 20:08:08 10° WNW 20:08:23 11° NW 20:08:23 11° NW visible
26 Jan -1.9 19:16:08 10° WNW 19:18:45 21° NNW 19:19:13 21° N visible
27 Jan -2.3 18:24:14 10° W 18:27:11 30° NNW 18:29:59 11° NE visible
28 Jan -1.5 19:10:46 10° NW 19:12:50 15° NNW 19:13:25 15° N visible
29 Jan -1.7 18:18:43 10° WNW 18:21:10 19° NNW 18:23:36 10° NNE visible
30 Jan -1.4 19:05:17 10° NNW 19:06:56 13° N 19:07:29 13° N visible
31 Jan -1.4 18:13:18 10° NW 18:15:12 14° N 18:17:05 10° NNE visible
31 Jan -0.8 19:50:46 10° NNW 19:50:52 10° NNW 19:50:52 10° NNW visible
